GSAT-9

Last updated on Sun Jun 21 2026 00:03:07 GMT+0000 (Coordinated Universal Time)

1 42695U 17024A 26171.41126538 -.00000290 00000+0 00000+0 0 9997 2 42695 0.0153 66.8126 0002519 18.5927 68.5717 1.00267932 33331
UTC large
Height (km)
Speed (km/s)
/
Latitude / Longitude
Inclination (degrees)
Orbital Period (minutes)
Azimuth
Elevation
Range (km)
Doppler Factor

Next 0 passes for location: London (51.5072 / 0.1276)

No passes found over London.
GSAT-9